EHI
61 61 59 63 73 84 85 76 63 52 42 35 32 28 25 24 26 30 27 18 9 6 9 11 11 8 7 7 5 3 2 2 3 3 1 1 4 10 16 17 15 14 14
71 70 66 66 74 85 86 77 67 57 48 40 35 29 26 25 25 30 30 22 12 8 8 10 10 9 8 10 9 6 4 4 4 3 2 1 2 5 8 11 13 14 15
80 79 74 71 76 83 85 80 73 63 53 46 38 31 27 25 27 34 37 30 20 14 11 12 13 12 11 12 11 9 8 6 5 5 3 2 1 1 2 4 7 12 16
79 79 79 76 75 79 84 83 78 68 57 48 40 33 30 28 31 40 42 36 27 20 18 18 18 17 14 12 10 10 11 9 8 7 6 3 2 1 0 1 3 7 11
71 75 80 78 74 74 80 83 80 73 62 52 42 36 33 32 34 40 40 36 30 25 23 24 23 20 16 13 11 11 12 11 10 11 9 6 5 4 1 0 1 2 4
62 71 78 78 73 71 76 82 81 76 68 56 45 40 37 35 36 39 38 34 31 29 27 28 28 25 21 18 15 13 12 12 13 13 12 9 7 6 3 1 0 0 1
57 64 73 75 74 72 76 80 81 77 70 60 50 44 39 37 39 42 41 37 33 31 29 28 28 27 25 23 19 16 14 14 14 13 10 8 6 5 4 2 0 0 0
50 57 67 73 75 75 76 80 80 78 72 64 57 50 42 38 41 43 41 39 34 28 26 25 23 23 23 22 21 19 17 17 16 13 10 8 7 6 6 3 1 0 0
43 53 65 71 73 75 77 79 79 77 73 67 61 54 47 44 46 43 38 35 29 24 23 20 18 19 20 21 21 20 18 18 17 14 12 11 10 8 7 5 2 1 1
41 53 64 68 69 74 77 77 77 78 75 70 63 56 52 52 51 45 37 30 24 21 20 19 17 18 19 20 20 17 16 16 16 13 11 11 10 8 7 5 3 2 1
43 54 64 65 64 69 75 76 77 78 78 74 67 60 57 56 53 46 38 28 21 19 20 20 17 16 17 19 19 16 15 15 12 9 8 8 7 6 5 2 2 1 1
47 56 66 66 64 68 73 75 77 79 79 76 71 65 61 57 53 47 40 32 25 21 21 20 18 17 17 18 18 16 14 11 8 7 6 6 6 5 3 1 0 1 1
57 62 70 73 72 73 76 75 75 78 78 76 74 69 63 58 53 48 42 36 29 24 23 22 20 18 17 16 14 14 11 6 4 5 6 5 5 5 2 0 0 0 0
70 72 78 82 82 82 82 78 76 77 78 78 76 71 64 59 55 50 45 39 30 24 25 25 22 18 15 12 10 10 8 5 3 4 6 5 4 3 2 0 0 0 0
76 79 86 90 91 90 88 84 81 81 82 80 78 74 68 63 59 54 48 41 31 27 28 27 20 13 9 7 7 7 7 6 6 5 4 3 2 1 0 0 0 0 0
73 80 90 95 96 95 91 87 86 86 85 82 80 77 73 69 64 57 51 44 37 33 33 28 18 11 6 3 3 6 8 10 9 6 3 1 0 0 0 0 0 0 0
72 80 89 94 96 95 90 86 85 84 82 80 79 78 76 73 68 61 54 49 42 38 35 28 19 12 6 2 1 4 8 10 9 6 4 2 1 1 1 1 0 0 0
77 80 85 90 93 93 89 84 82 82 81 80 80 80 78 75 70 65 59 52 45 39 34 29 21 14 8 3 0 1 5 8 8 6 5 5 5 2 2 2 1 1 1
79 79 82 85 89 91 90 86 83 84 84 82 82 82 81 76 72 68 60 52 46 41 35 30 25 18 11 4 0 1 3 6 6 5 5 6 5 2 1 2 1 1 0
75 76 78 81 85 88 89 87 86 86 85 83 83 83 80 75 71 66 59 52 47 42 37 32 28 22 15 7 1 1 3 5 5 5 4 3 2 1 0 1 1 0 0
73 74 76 78 79 82 85 86 86 84 82 81 82 79 73 68 66 63 58 53 47 42 38 34 29 23 16 8 2 1 2 4 5 5 3 1 0 0 0 0 0 0 0
70 70 72 73 72 73 77 80 81 78 75 75 75 72 66 61 59 60 58 54 48 41 36 32 27 20 15 8 2 0 1 2 3 3 2 1 0 0 0 0 0 0 0
64 65 66 66 66 66 67 69 71 69 66 66 68 66 62 57 56 56 54 49 44 36 31 27 22 17 14 9 3 0 0 0 1 1 1 0 0 0 0 0 0 0 0
59 60 60 60 60 60 60 60 61 61 59 60 62 62 59 55 52 48 43 38 33 28 25 23 20 16 13 10 4 1 0 0 0 0 0 0 0 0 0 0 0 0 0
56 55 54 53 53 55 57 56 56 56 54 54 55 55 53 48 42 36 29 23 20 18 17 17 17 14 11 8 5 1 0 0 0 0 0 0 0 0 0 0 0 0 0
52 50 49 48 48 51 55 54 53 52 50 49 49 48 48 43 36 29 22 14 11 10 9 10 11 11 9 6 4 1 0 0 0 0 0 0 0 0 0 0 0 0 0
Wind_Speed
12 11 11 11 12 10 9 8 7 6 4 3 3 2 2 2 2 3 4 4 4 4 3 1 2 2 2 3 3 2 3 3 2 1 1 1 1 2 2 2 2 3 4
12 11 11 10 11 10 9 9 7 7 6 4 3 2 2 3 3 2 4 4 4 4 4 3 2 2 2 2 2 2 1 2 2 2 0 1 1 1 2 1 2 2 1
14 12 11 10 10 11 10 9 8 8 7 5 4 2 1 1 1 3 3 3 4 4 2 4 3 2 2 2 3 3 3 2 2 1 2 1 1 1 1 1 1 2 1
13 13 12 11 11 11 10 8 8 7 6 6 5 5 4 3 3 2 3 3 3 3 3 3 2 2 2 1 3 3 3 3 2 2 2 2 2 2 1 1 0 1 1
13 13 13 11 10 10 10 9 8 7 7 6 5 4 3 2 2 2 3 3 2 3 3 3 2 2 2 2 2 1 2 2 3 2 2 2 2 2 2 2 1 0 0
12 12 12 10 9 10 10 10 9 7 7 6 6 5 4 3 2 2 2 2 2 2 3 3 2 2 2 2 2 2 3 2 3 2 2 2 2 2 2 3 3 2 1
11 12 12 11 10 10 10 10 10 8 7 7 6 5 5 4 4 3 3 3 2 2 2 3 2 2 2 2 2 2 3 3 3 3 3 3 3 2 2 3 2 2 1
11 12 12 11 10 10 10 10 10 8 8 7 6 5 5 4 3 4 3 3 2 2 2 3 3 2 2 3 2 2 3 3 3 4 3 2 2 2 2 2 2 2 1
11 11 12 12 11 10 10 10 9 9 8 8 6 5 5 3 3 3 3 3 2 2 3 3 2 2 2 2 1 2 2 1 1 2 2 2 2 1 2 2 3 3 2
10 11 11 11 11 11 10 10 10 8 8 7 6 6 5 4 3 3 3 2 1 1 1 2 2 2 2 2 2 2 1 1 1 1 1 1 2 1 1 1 2 2 2
10 11 10 11 11 11 11 10 9 9 8 8 6 5 6 5 4 3 3 2 2 2 2 2 2 2 2 2 1 2 1 1 1 1 1 1 2 1 1 1 1 1 2
9 11 11 10 10 11 11 10 10 10 9 8 7 6 5 5 5 4 3 3 3 2 2 2 2 2 2 1 1 2 1 0 1 1 1 1 1 1 1 0 0 0 1
7 9 9 9 9 9 10 10 10 9 9 9 8 6 6 5 4 3 3 3 3 3 2 2 2 1 1 1 1 1 1 1 1 1 1 1 1 2 1 0 0 1 1
6 7 6 6 7 7 8 8 8 8 8 8 8 7 6 5 5 4 4 3 3 3 2 2 2 1 1 0 0 0 0 0 0 1 1 2 2 2 1 1 1 1 2
7 8 7 6 6 7 7 7 7 8 7 7 7 7 6 5 5 4 4 4 3 3 3 2 2 2 1 1 1 1 1 1 1 2 2 3 4 4 2 2 2 1 1
5 7 7 7 7 6 6 6 6 6 6 7 7 7 6 6 5 5 5 4 3 3 3 2 2 2 2 2 2 1 0 1 1 1 2 3 4 4 5 5 4 2 2
3 5 6 6 6 6 5 6 5 6 6 6 6 7 7 6 6 6 5 5 4 3 3 3 3 3 3 3 3 2 1 2 2 1 1 1 3 3 3 3 4 3 3
1 3 4 5 5 6 6 5 6 6 6 6 6 6 6 6 6 5 5 4 3 3 2 3 3 3 4 3 2 2 1 2 2 2 2 2 3 3 2 2 3 3 3
2 1 2 4 4 4 5 6 6 6 6 6 5 6 6 6 6 5 5 4 4 3 3 3 3 3 4 3 2 1 1 1 1 2 3 2 3 3 2 1 2 3 2
4 2 2 3 3 2 3 5 6 6 5 5 5 5 5 6 6 5 5 4 4 3 3 3 3 3 3 4 2 0 1 2 2 3 4 5 3 2 2 0 1 2 2
4 4 4 4 3 3 3 4 4 4 4 4 3 4 5 5 4 4 4 4 4 4 3 3 3 3 3 5 3 1 1 1 1 2 3 3 4 3 2 1 0 1 1
6 6 5 5 4 3 3 3 3 3 3 3 3 3 3 3 4 4 4 4 4 4 4 4 3 3 3 4 4 3 1 1 1 1 2 3 4 3 1 0 1 1 1
6 5 5 5 4 3 3 2 2 2 3 3 3 3 3 2 3 4 4 4 3 4 4 4 3 3 3 4 4 3 2 1 1 2 4 3 4 3 2 3 3 2 2
5 5 4 4 4 3 3 2 2 2 2 3 3 3 3 3 3 3 3 3 3 3 3 3 3 3 3 4 4 3 2 2 2 2 3 3 2 3 1 2 3 2 1
4 4 3 3 3 3 2 2 2 2 2 2 2 3 4 4 3 3 2 1 1 0 1 2 2 3 3 2 3 2 2 2 2 2 3 3 3 2 2 2 2 1 1
3 3 4 4 3 3 3 3 3 2 2 1 2 1 2 3 3 4 3 6 4 4 5 3 3 3 5 6 5 4 3 2 2 1 3 3 3 3 2 2 2 2 1
Wind_Direction
166 162 166 164 160 159 160 164 171 165 171 173 178 183 180 191 184 178 163 176 197 189 200 208 181 207 202 197 194 191 204 223 222 217 257 266 202 183 193 197 197 191 185
164 164 168 169 165 162 165 169 174 171 180 178 176 187 185 203 183 178 162 184 193 194 193 189 212 209 205 210 215 194 229 245 221 179 169 298 314 298 238 190 189 184 164
166 168 173 172 171 168 173 176 176 177 184 176 177 186 173 238 183 172 172 195 197 200 211 187 214 219 215 198 208 211 217 230 259 217 173 196 229 289 296 250 210 142 143
164 168 172 174 175 173 171 168 172 177 178 181 193 192 194 201 195 180 171 193 204 201 194 203 211 229 247 208 219 207 209 216 242 248 219 201 178 181 263 295 318 104 151
164 168 170 173 173 171 167 166 168 172 176 188 196 202 208 205 193 174 171 186 199 218 206 194 202 215 233 239 245 196 212 222 239 244 238 229 207 206 197 235 241 247 238
156 159 161 163 167 167 166 164 163 171 177 188 197 198 206 210 204 185 175 193 200 213 209 193 194 202 213 232 233 227 226 231 251 266 255 223 212 204 202 217 220 215 240
151 154 158 162 167 167 167 162 163 172 180 187 196 194 203 207 208 212 197 203 207 205 202 189 184 209 216 221 222 221 238 235 238 244 253 247 240 221 199 196 216 215 215
156 159 161 162 167 168 165 162 165 171 178 184 188 191 199 212 203 201 205 202 213 200 183 177 190 209 229 237 218 226 231 225 233 246 249 259 251 235 200 198 201 219 223
153 158 159 162 166 168 165 164 162 170 179 184 182 189 195 205 203 193 204 202 201 200 172 179 188 202 223 246 227 238 253 239 243 262 259 266 263 226 214 213 201 197 212
156 154 157 162 165 166 161 163 165 171 174 175 181 182 186 192 197 200 192 197 206 220 171 181 193 202 219 233 238 241 247 237 247 252 267 283 306 295 232 224 226 199 193
162 155 158 160 164 164 162 165 164 167 172 175 179 177 173 184 183 190 197 197 213 205 195 198 202 211 221 233 236 252 239 232 267 299 289 263 285 291 266 236 228 206 179
161 155 156 160 166 166 164 165 170 173 175 174 172 175 172 176 184 187 187 191 200 209 202 204 205 216 212 211 244 271 284 284 285 308 314 301 287 295 289 284 257 190 154
148 143 153 161 167 163 161 166 172 172 175 173 172 175 177 179 183 184 177 181 191 195 188 185 188 213 196 173 212 271 324 304 294 305 314 339 360 7 13 15 87 115 124
134 132 142 154 155 152 154 162 170 166 171 171 175 173 178 179 178 179 174 173 179 182 178 171 182 178 155 122 18 349 228 248 326 38 49 53 49 34 359 34 75 99 117
144 142 155 150 148 149 157 166 168 167 168 168 172 172 174 171 172 176 168 165 179 183 167 176 174 158 133 70 33 309 201 160 127 89 79 77 77 66 55 58 75 103 125
152 154 153 153 155 157 165 169 167 163 161 167 173 168 170 170 170 169 162 165 173 168 164 165 141 108 85 75 62 1 4 85 97 106 110 122 102 93 91 92 94 115 149
150 153 158 161 162 166 167 169 164 163 166 169 171 169 171 169 166 172 167 168 169 165 156 148 131 110 97 88 82 57 12 90 89 93 81 70 79 89 97 115 118 97 104
113 152 165 164 167 172 174 171 169 167 169 172 173 170 169 168 165 166 162 158 157 160 156 152 145 134 123 118 93 46 117 105 100 90 96 96 84 55 55 109 106 87 71
56 87 152 159 158 167 171 165 166 162 167 173 175 169 169 167 166 169 162 155 156 158 164 153 146 137 130 139 125 5 179 135 126 110 80 82 98 58 33 108 124 115 97
43 58 85 107 120 131 149 159 163 163 173 176 173 166 164 169 171 167 162 158 159 164 158 148 144 142 135 151 156 232 240 169 145 120 102 75 84 83 38 355 147 141 125
42 60 72 73 73 89 117 138 147 157 157 151 154 161 164 169 162 159 159 155 162 162 157 153 152 146 137 150 159 170 253 233 184 159 134 113 109 96 65 26 57 141 153
49 53 60 64 57 65 89 116 123 123 129 137 134 138 154 172 162 154 156 163 166 166 169 171 172 160 149 143 158 162 173 314 324 105 112 130 142 135 137 149 130 119 160
46 49 57 64 57 59 73 103 110 118 135 148 149 151 151 149 142 150 159 167 174 186 187 184 184 178 153 138 143 160 163 124 69 62 91 127 162 175 191 188 196 201 227
43 50 53 55 52 48 49 69 89 112 137 151 153 157 155 140 132 140 158 166 184 204 200 189 184 175 161 149 157 166 166 148 145 141 133 159 198 241 227 180 211 225 235
39 40 48 51 44 38 41 45 69 103 120 139 150 163 158 142 134 123 83 135 104 76 211 205 183 173 156 131 136 158 164 181 158 163 176 193 192 201 198 192 203 221 205
46 38 31 34 30 27 32 34 43 68 100 131 149 169 159 151 151 145 118 61 77 71 67 67 88 85 110 127 123 122 113 117 125 183 212 206 206 206 205 204 200 197 209